This is the latest recevied weather packets stored in our database for station/object N8BAP. If no packets are shown the sender has not sent any weather packets the latest 10 day(s).
| Time | Temp. | Humidity | Pressure | Rain* | Wind** | Luminosity | Snow |
|---|---|---|---|---|---|---|---|
| 1787786502 | 26.11° C | 65% | 1019.7 hPa | 0 mm | - | 44 W/m² | - |
| 1787786192 | 26.11° C | 65% | 1019.7 hPa | 0 mm | - | 50 W/m² | - |
| 1787785888 | 26.11° C | 65% | 1019.9 hPa | 0 mm | - | 58 W/m² | - |
| 1787785583 | 26.67° C | 63% | 1019.5 hPa | 0 mm | - | 74 W/m² | - |
| 1787785278 | 26.67° C | 62% | 1019.5 hPa | 0 mm | - | 85 W/m² | - |
| 1787784977 | 26.67° C | 61% | 1019.4 hPa | 0 mm | - | 94 W/m² | - |
| 1787784677 | 26.67° C | 59% | 1019.6 hPa | 0 mm | - | 110 W/m² | - |
| 1787784375 | 27.22° C | 57% | 1019.9 hPa | 0 mm | - | 121 W/m² | - |
| 1787784070 | 27.22° C | 57% | 1019.6 hPa | 0 mm | - | 129 W/m² | - |
| 1787783767 | 27.22° C | 57% | 1019.5 hPa | 0 mm | - | 150 W/m² | - |
| 1787783466 | 27.22° C | 59% | 1019.4 hPa | 0 mm | - | 165 W/m² | - |
| 1787783162 | 27.22° C | 57% | 1019.5 hPa | 0 mm | - | 171 W/m² | - |
| 1787782862 | 27.78° C | 56% | 1019.5 hPa | 0 mm | - | 181 W/m² | - |
| 1787782556 | 27.78° C | 60% | 1019.5 hPa | 0 mm | - | 197 W/m² | - |
| 1787782252 | 27.22° C | 58% | 1019.5 hPa | 0 mm | - | 207 W/m² | - |
| 1787781948 | 27.78° C | 58% | 1019.6 hPa | 0 mm | - | 231 W/m² | - |
| 1787781642 | 27.78° C | 59% | 1019.7 hPa | 0 mm | - | 232 W/m² | - |
| 1787781333 | 27.78° C | 57% | 1019.8 hPa | 0 mm | - | 239 W/m² | - |
| 1787781032 | 27.78° C | 56% | 1019.9 hPa | 0 mm | - | 251 W/m² | - |
| 1787780722 | 28.33° C | 57% | 1020.1 hPa | 0 mm | - | 249 W/m² | - |
| 1787780421 | 28.33° C | 57% | 1020 hPa | 0 mm | - | 249 W/m² | - |
| 1787780117 | 28.33° C | 57% | 1020 hPa | 0 mm | - | 220 W/m² | - |
| 1787779812 | 28.33° C | 55% | 1020.2 hPa | 0 mm | - | 255 W/m² | - |
| 1787779511 | 27.78° C | 55% | 1020.1 hPa | 0 mm | - | 294 W/m² | - |
| 1787779206 | 27.78° C | 54% | 1020.4 hPa | 0 mm | - | 338 W/m² | - |
* Rain latest hour (hover to see other rain measurements)
** Current wind speed in m/s (hover to see current wind gust speed)